MetarTest
Metar LSZC 020320Z 18005KT 9999 BKN017 03/01 Q1019
Taf LSME 011625Z 0117/0223 VRB02KT 8000 FEW015 BKN018 PROB40 TEMPO 0117/0209 BKN013
Metar LSZH 020320Z 30003KT 9999 BKN037 02/01 Q1019 NOSIG
Taf LSZH 020225Z 0203/0309 32004KT 9999 BKN035 TX04/0213Z TN02/0205Z TN00/0301Z BECMG 0222/0301 3000 BCFG BKN006 BECMG 0304/0306 04007KT 9999 BKN012
QNH LSZC 1019
Privacy Settings
We use cookies to enhance your experience while using our website. If you are using our Services via a browser you can restrict, block or remove cookies through your web browser settings. We also use content and scripts from third parties that may use tracking technologies. You can selectively provide your consent below to allow such third party embeds. For complete information about the cookies we use, data we collect and how we process them, please check our Privacy Policy
Youtube
Consent to display content from Youtube
Vimeo
Consent to display content from Vimeo
Google Maps
Consent to display content from Google